Time,TemperatureF,DewpointF,PressureIn,WindDirection,WindDirectionDegrees,WindSpeedMPH,WindSpeedGustMPH,Humidity,HourlyPrecipIn,Conditions,Clouds,dailyrainin,SolarRadiationWatts/m^2,SoftwareType,DateUTC
2013-05-16 00:01:00,70.0,20.0,-100.00,NW,322,2.0,8.0,15,0.00,,,-99.99,0.000000,,2013-05-16 06:01:00,
2013-05-16 00:12:00,70.0,20.0,-100.00,NW,322,2.0,8.0,15,0.00,,,-99.99,0.000000,,2013-05-16 06:12:00,
2013-05-16 00:22:00,70.0,20.0,-100.00,NW,322,2.0,8.0,15,0.00,,,-99.99,0.000000,,2013-05-16 06:22:00,
2013-05-16 00:53:00,68.0,20.0,-100.00,NNW,340,2.0,12.0,16,0.00,,,0.00,0.000000,,2013-05-16 06:53:00,
2013-05-16 01:02:00,68.0,20.0,-100.00,NNW,340,2.0,12.0,16,0.00,,,0.00,0.000000,,2013-05-16 07:02:00,
2013-05-16 01:12:00,68.0,20.0,-100.00,NNW,340,2.0,12.0,16,0.00,,,0.00,0.000000,,2013-05-16 07:12:00,
2013-05-16 01:24:00,68.0,20.0,-100.00,NNW,340,2.0,12.0,16,0.00,,,0.00,0.000000,,2013-05-16 07:24:00,
2013-05-16 01:54:00,67.0,21.0,-100.00,North,1,0.0,10.0,17,0.00,,,0.00,0.000000,,2013-05-16 07:54:00,
2013-05-16 02:03:00,67.0,21.0,-100.00,North,1,0.0,10.0,17,0.00,,,0.00,0.000000,,2013-05-16 08:03:00,
2013-05-16 02:13:00,67.0,21.0,-100.00,North,1,0.0,10.0,17,0.00,,,0.00,0.000000,,2013-05-16 08:13:00,
2013-05-16 02:24:00,67.0,21.0,-100.00,North,1,0.0,10.0,17,0.00,,,0.00,0.000000,,2013-05-16 08:24:00,
2013-05-16 02:55:00,69.0,21.0,-100.00,NW,306,1.0,8.0,16,0.00,,,0.00,0.000000,,2013-05-16 08:55:00,
2013-05-16 03:04:00,69.0,21.0,-100.00,NW,306,1.0,8.0,16,0.00,,,0.00,0.000000,,2013-05-16 09:04:00,
2013-05-16 03:14:00,69.0,21.0,-100.00,NW,306,1.0,8.0,16,0.00,,,0.00,0.000000,,2013-05-16 09:14:00,
2013-05-16 03:24:00,69.0,21.0,-100.00,NW,306,1.0,8.0,16,0.00,,,0.00,0.000000,,2013-05-16 09:24:00,
2013-05-16 03:55:00,64.0,21.0,-100.00,NNE,28,0.0,5.0,19,0.00,,,-99.99,0.000000,,2013-05-16 09:55:00,
2013-05-16 04:05:00,64.0,21.0,-100.00,NNE,28,0.0,5.0,19,0.00,,,-99.99,0.000000,,2013-05-16 10:05:00,
2013-05-16 04:15:00,64.0,21.0,-100.00,NNE,28,0.0,5.0,19,0.00,,,-99.99,0.000000,,2013-05-16 10:15:00,
2013-05-16 04:24:00,64.0,21.0,-100.00,NNE,28,0.0,5.0,19,0.00,,,-99.99,0.000000,,2013-05-16 10:24:00,
2013-05-16 04:56:00,65.0,22.0,-100.00,NW,324,6.0,9.0,19,0.00,,,0.00,0.000000,,2013-05-16 10:56:00,
2013-05-16 05:05:00,65.0,22.0,-100.00,NW,324,6.0,9.0,19,0.00,,,0.00,0.000000,,2013-05-16 11:05:00,
2013-05-16 05:14:00,65.0,22.0,-100.00,NW,324,6.0,9.0,19,0.00,,,0.00,0.000000,,2013-05-16 11:14:00,
2013-05-16 05:25:00,65.0,22.0,-100.00,NW,324,6.0,9.0,19,0.00,,,0.00,0.000000,,2013-05-16 11:25:00,
2013-05-16 05:57:00,65.0,23.0,-100.00,NW,326,5.0,15.0,20,0.00,,,0.00,0.000000,,2013-05-16 11:57:00,
2013-05-16 06:06:00,65.0,23.0,-100.00,NW,326,5.0,15.0,20,0.00,,,0.00,0.000000,,2013-05-16 12:06:00,
2013-05-16 06:13:00,65.0,23.0,-100.00,NW,326,5.0,15.0,20,0.00,,,0.00,0.000000,,2013-05-16 12:13:00,
2013-05-16 06:23:00,65.0,23.0,-100.00,NW,326,5.0,15.0,20,0.00,,,0.00,0.000000,,2013-05-16 12:23:00,
2013-05-16 06:26:00,66.0,24.0,-100.00,NW,325,7.0,14.0,20,0.00,,,0.00,2.000000,,2013-05-16 12:26:00,
2013-05-16 06:53:00,66.0,24.0,-100.00,NW,325,7.0,14.0,20,0.00,,,0.00,2.000000,,2013-05-16 12:53:00,
2013-05-16 07:04:00,66.0,24.0,-100.00,NW,325,7.0,14.0,20,0.00,,,0.00,2.000000,,2013-05-16 13:04:00,
2013-05-16 07:12:00,66.0,24.0,-100.00,NW,325,7.0,14.0,20,0.00,,,0.00,2.000000,,2013-05-16 13:12:00,
2013-05-16 07:55:00,64.0,24.0,-100.00,SW,215,0.0,12.0,22,0.00,,,0.00,33.000000,,2013-05-16 13:55:00,
2013-05-16 08:05:00,64.0,24.0,-100.00,SW,215,0.0,12.0,22,0.00,,,0.00,33.000000,,2013-05-16 14:05:00,
2013-05-16 08:16:00,64.0,24.0,-100.00,SW,215,0.0,12.0,22,0.00,,,0.00,33.000000,,2013-05-16 14:16:00,
2013-05-16 08:23:00,64.0,24.0,-100.00,SW,215,0.0,12.0,22,0.00,,,0.00,33.000000,,2013-05-16 14:23:00,
2013-05-16 08:26:00,74.0,26.0,-100.00,NNE,22,3.0,10.0,17,0.00,,,-99.99,391.000000,,2013-05-16 14:26:00,
2013-05-16 08:56:00,74.0,26.0,-100.00,NNE,22,3.0,10.0,17,0.00,,,-99.99,391.000000,,2013-05-16 14:56:00,
2013-05-16 09:17:00,74.0,26.0,-100.00,NNE,22,3.0,10.0,17,0.00,,,-99.99,391.000000,,2013-05-16 15:17:00,
2013-05-16 09:26:00,74.0,26.0,-100.00,NNW,333,7.0,15.0,17,0.00,,,0.00,667.000000,,2013-05-16 15:26:00,
2013-05-16 10:00:00,74.0,26.0,-100.00,NNW,333,7.0,15.0,17,0.00,,,0.00,667.000000,,2013-05-16 16:00:00,
2013-05-16 10:09:00,74.0,26.0,-100.00,NNW,333,7.0,15.0,17,0.00,,,0.00,667.000000,,2013-05-16 16:09:00,
2013-05-16 10:20:00,74.0,26.0,-100.00,NNW,333,7.0,15.0,17,0.00,,,0.00,667.000000,,2013-05-16 16:20:00,
2013-05-16 10:26:00,75.0,24.0,-100.00,WNW,298,7.0,13.0,15,0.00,,,0.00,913.000000,,2013-05-16 16:26:00,
2013-05-16 11:01:00,75.0,24.0,-100.00,WNW,298,7.0,13.0,15,0.00,,,0.00,913.000000,,2013-05-16 17:01:00,
2013-05-16 11:10:00,75.0,24.0,-100.00,WNW,298,7.0,13.0,15,0.00,,,0.00,913.000000,,2013-05-16 17:10:00,
2013-05-16 11:20:00,75.0,24.0,-100.00,WNW,298,7.0,13.0,15,0.00,,,0.00,913.000000,,2013-05-16 17:20:00,
2013-05-16 11:26:00,-999.0,-99.9,-100.00,WSW,244,11.0,20.0,13,0.00,,,0.00,1107.000000,,2013-05-16 17:26:00,
2013-05-16 12:00:00,-999.0,-99.9,-100.00,WSW,244,11.0,20.0,13,0.00,,,0.00,1107.000000,,2013-05-16 18:00:00,
2013-05-16 12:10:00,77.0,22.0,-100.00,WSW,244,11.0,20.0,13,0.00,,,0.00,1107.000000,,2013-05-16 18:10:00,
2013-05-16 12:20:00,77.0,22.0,-100.00,WSW,244,11.0,20.0,13,0.00,,,0.00,1107.000000,,2013-05-16 18:20:00,
2013-05-16 12:26:00,81.0,24.0,-100.00,West,271,11.0,22.0,12,0.00,,,-99.99,1231.000000,,2013-05-16 18:26:00,
2013-05-16 13:00:00,-999.0,-99.9,-100.00,West,271,11.0,22.0,12,0.00,,,-99.99,1231.000000,,2013-05-16 19:00:00,
2013-05-16 13:10:00,81.0,24.0,-100.00,West,271,11.0,22.0,12,0.00,,,-99.99,1231.000000,,2013-05-16 19:10:00,
2013-05-16 13:20:00,81.0,24.0,-100.00,West,271,11.0,22.0,12,0.00,,,-99.99,1231.000000,,2013-05-16 19:20:00,
2013-05-16 13:26:00,81.0,17.0,-100.00,West,269,10.0,25.0,9,0.00,,,0.00,1279.000000,,2013-05-16 19:26:00,
2013-05-16 14:01:00,-999.0,-99.9,-100.00,West,269,10.0,25.0,9,0.00,,,0.00,1279.000000,,2013-05-16 20:01:00,
2013-05-16 14:10:00,-999.0,-99.9,-100.00,West,269,10.0,25.0,9,0.00,,,0.00,1279.000000,,2013-05-16 20:10:00,
2013-05-16 14:20:00,81.0,-99.9,-100.00,West,269,10.0,25.0,9,0.00,,,0.00,1279.000000,,2013-05-16 20:20:00,
2013-05-16 14:26:00,83.0,13.0,-100.00,SW,226,13.0,28.0,7,0.00,,,0.00,1261.000000,,2013-05-16 20:26:00,
2013-05-16 15:00:00,83.0,-99.9,-100.00,SW,226,13.0,28.0,7,0.00,,,0.00,1261.000000,,2013-05-16 21:00:00,
2013-05-16 15:10:00,83.0,-99.9,-100.00,SW,226,13.0,28.0,7,0.00,,,0.00,1261.000000,,2013-05-16 21:10:00,
2013-05-16 15:20:00,83.0,-99.9,-100.00,SW,226,13.0,28.0,7,0.00,,,0.00,1261.000000,,2013-05-16 21:20:00,
2013-05-16 15:26:00,84.0,13.0,-100.00,WNW,290,13.0,27.0,7,0.00,,,0.00,1166.000000,,2013-05-16 21:26:00,
2013-05-16 16:00:00,-999.0,-99.9,-100.00,WNW,290,13.0,27.0,7,0.00,,,0.00,1166.000000,,2013-05-16 22:00:00,
2013-05-16 16:08:00,84.0,13.0,-100.00,WNW,290,13.0,27.0,7,0.00,,,0.00,1166.000000,,2013-05-16 22:08:00,
2013-05-16 16:21:00,84.0,13.0,-100.00,WNW,290,13.0,27.0,7,0.00,,,0.00,1166.000000,,2013-05-16 22:21:00,
2013-05-16 17:01:00,86.0,15.0,-100.00,WSW,240,17.0,32.0,7,0.00,,,0.00,994.000000,,2013-05-16 23:01:00,
2013-05-16 17:06:00,86.0,15.0,-100.00,WSW,240,17.0,32.0,7,0.00,,,0.00,994.000000,,2013-05-16 23:06:00,
2013-05-16 17:16:00,86.0,15.0,-100.00,WSW,240,17.0,32.0,7,0.00,,,0.00,994.000000,,2013-05-16 23:16:00,
2013-05-16 17:24:00,86.0,15.0,-100.00,WSW,240,17.0,32.0,7,0.00,,,0.00,994.000000,,2013-05-16 23:24:00,
2013-05-16 17:54:00,85.0,11.0,-100.00,WSW,254,11.0,31.0,6,0.00,,,0.00,766.000000,,2013-05-16 23:54:00,
2013-05-16 18:02:00,85.0,11.0,-100.00,WSW,254,11.0,31.0,6,0.00,,,0.00,766.000000,,2013-05-17 00:02:00,
2013-05-16 18:13:00,85.0,11.0,-100.00,WSW,254,11.0,31.0,6,0.00,,,0.00,766.000000,,2013-05-17 00:13:00,
2013-05-16 18:22:00,85.0,11.0,-100.00,WSW,254,11.0,31.0,6,0.00,,,0.00,766.000000,,2013-05-17 00:22:00,
2013-05-16 18:53:00,83.0,9.0,-100.00,WSW,238,16.0,28.0,6,0.00,,,0.00,497.000000,,2013-05-17 00:53:00,
2013-05-16 19:03:00,83.0,9.0,-100.00,WSW,238,16.0,28.0,6,0.00,,,0.00,497.000000,,2013-05-17 01:03:00,
2013-05-16 19:12:00,83.0,9.0,-100.00,WSW,238,16.0,28.0,6,0.00,,,0.00,497.000000,,2013-05-17 01:12:00,
2013-05-16 19:23:00,83.0,9.0,-100.00,WSW,238,16.0,28.0,6,0.00,,,0.00,497.000000,,2013-05-17 01:23:00,
2013-05-16 19:52:00,78.0,15.0,-100.00,West,264,9.0,26.0,9,0.00,,,0.00,205.000000,,2013-05-17 01:52:00,
2013-05-16 20:02:00,78.0,15.0,-100.00,West,264,9.0,26.0,9,0.00,,,0.00,205.000000,,2013-05-17 02:02:00,
2013-05-16 20:11:00,78.0,15.0,-100.00,West,264,9.0,26.0,9,0.00,,,0.00,205.000000,,2013-05-17 02:11:00,
2013-05-16 20:22:00,78.0,15.0,-100.00,West,264,9.0,26.0,9,0.00,,,0.00,205.000000,,2013-05-17 02:22:00,
2013-05-16 20:53:00,76.0,16.0,-100.00,WNW,283,4.0,22.0,10,0.00,,,0.00,10.000000,,2013-05-17 02:53:00,
2013-05-16 21:02:00,76.0,16.0,-100.00,WNW,283,4.0,22.0,10,0.00,,,0.00,10.000000,,2013-05-17 03:02:00,
2013-05-16 21:11:00,76.0,16.0,-100.00,WNW,283,4.0,22.0,10,0.00,,,0.00,10.000000,,2013-05-17 03:11:00,
2013-05-16 21:22:00,76.0,16.0,-100.00,WNW,283,4.0,22.0,10,0.00,,,0.00,10.000000,,2013-05-17 03:22:00,
2013-05-16 21:53:00,73.0,11.0,-100.00,NW,310,1.0,7.0,9,0.00,,,0.00,0.000000,,2013-05-17 03:53:00,
2013-05-16 22:02:00,73.0,11.0,-100.00,NW,310,1.0,7.0,9,0.00,,,0.00,0.000000,,2013-05-17 04:02:00,
2013-05-16 22:13:00,73.0,11.0,-100.00,NW,310,1.0,7.0,9,0.00,,,0.00,0.000000,,2013-05-17 04:13:00,
2013-05-16 22:23:00,73.0,11.0,-100.00,NW,310,1.0,7.0,9,0.00,,,0.00,0.000000,,2013-05-17 04:23:00,
2013-05-16 22:53:00,70.0,13.0,-100.00,NE,34,0.0,7.0,11,0.00,,,0.00,0.000000,,2013-05-17 04:53:00,
2013-05-16 23:03:00,70.0,13.0,-100.00,NE,34,0.0,7.0,11,0.00,,,0.00,0.000000,,2013-05-17 05:03:00,
2013-05-16 23:14:00,70.0,13.0,-100.00,NE,34,0.0,7.0,11,0.00,,,0.00,0.000000,,2013-05-17 05:14:00,
2013-05-16 23:22:00,70.0,13.0,-100.00,NE,34,0.0,7.0,11,0.00,,,0.00,0.000000,,2013-05-17 05:22:00,
2013-05-16 23:52:00,70.0,13.0,-100.00,NNE,30,0.0,7.0,11,0.00,,,0.00,0.000000,,2013-05-17 05:52:00,